Location: Helion Bumpstead
(52.0500°N, 0.4000°E)
Time: 22:52:45
(UTC+00:00)

Cosmos 1725 Rocket - Pass Details

Date: 23 February 2026
Orbit: 962 x 989 km, 82.9° (Epoch: 11 March)

Event Time Altitude Azimuth Distance (km) Brightness Sun altitude
Rises 04:00:30 0° 139° (SE) 3,639 7.2 -27.6°
Reaches altitude 10° 04:03:39 10° 123° (ESE) 2,700 6.7 -27.1°
Maximum altitude 04:07:56 20° 79° (E) 2,075 6.5 -26.5°
Drops below altitude 10° 04:12:14 10° 35° (NE) 2,722 7.0 -25.9°
Sets 04:15:25 0° 19° (NNE) 3,679 7.5 -25.4°
